Location: Di�lizangasso
(12.9990°N, 4.9795°W)
Time: 13:14:30
(UTC+00:00)

Daily predictions for brighter satellites

Satellite Brightness Start Highest point End
(mag) Time Altitude Azimuth Time Altitude Azimuth Time Altitude Azimuth
ATLAS V CENTAUR R/B 2.9 19:05:46 10° W 19:07:38 44° N 19:11:38 10° ENE
Cosmos 1892 Rocket 4.2 19:06:04 10° SSE 19:09:56 33° E 19:13:48 10° NNE
Cosmos 2098 Rocket 4.1 19:09:33 10° S 19:16:23 59° E 19:22:05 10° NNE
ARIANE 5 R/B 4.5 19:12:51 10° WSW 19:16:31 20° S 19:19:29 10° SE
Lacrosse 4 Rocket 3.4 19:13:31 10° NW 19:16:57 27° WSW 19:20:22 10° SSW
ATLAS 5 CENTAUR R/B 2.2 19:14:12 10° S 19:17:37 27° ESE 19:21:01 10° NE
YAOGAN 1 2.5 19:16:02 10° SSE 19:20:21 81° E 19:24:40 10° N
Centaur AC-122 4.4 19:17:22 10° WNW 19:22:59 70° SSW 19:30:55 11° ESE
CZ-2C R/B 3.5 19:19:17 10° NE 19:23:39 26° E 19:27:57 10° SSE
CSL-04 Debris 4.3 19:18:50 10° SSE 19:24:11 61° ENE 19:29:33 10° N
Okean-O 3.8 19:20:31 10° S 19:24:44 45° W 19:28:58 10° NNW
Okean 1-7 Rocket 4.1 19:20:48 10° SSE 19:25:04 41° E 19:29:20 10° NNE
Orbus 7S 3.8 19:23:43 10° NW 19:26:04 32° NNE 19:28:54 10° E
IUS-15 SRM-1 4.5 19:25:40 10° NW 19:27:44 18° N 19:29:14 10° ENE
Cosmos 1898 Rocket 4.0 19:23:43 10° N 19:28:32 39° ENE 19:33:19 10° SE
Cosmos 1908 3.9 19:26:19 10° NNE 19:29:52 34° E 19:33:26 10° SSE
CSL-04 Rocket 3.7 19:26:12 10° SSE 19:31:43 71° ENE 19:37:10 10° N
H-2A ROCKET BODY 4.4 19:30:09 10° N 19:31:52 12° NNE 19:34:20 10° NE
Ariane Rocket 4.3 19:29:26 12° ESE 19:32:52 22° ENE 19:36:42 10° NNE
Cosmos 2292 Rocket 3.9 19:30:23 10° SSW 19:33:20 48° W 19:36:47 10° N
USA 215 3.6 19:27:16 10° NE 19:33:22 43° SE 19:39:27 10° SSW
Intelsat 5-2 Rocket 4.4 19:32:45 10° NW 19:35:04 17° N 19:36:52 10° NE
GEOS 3 Rocket 4.2 19:30:21 10° NE 19:35:09 34° ESE 19:39:52 10° S
Cosmos 1953 2.9 19:31:25 10° NNW 19:35:21 59° W 19:39:19 10° S
Meteor 1-16 Rocket 4.3 19:37:10 10° N 19:42:38 83° W 19:48:17 10° S
DMSP B5D2-2 4.3 19:38:17 10° NNE 19:43:13 45° E 19:48:10 10° S
Cosmos 990 Rocket 3.9 19:39:44 10° N 19:44:51 68° ENE 19:49:43 11° SSE
H-2A R/B 2.3 19:41:38 10° SSE 19:46:52 55° ENE 19:52:09 10° N
Spelda 30 4.5 19:44:36 10° SW 19:47:00 21° SSE 19:48:47 18° SE
Cosmos 2297 Rocket 3.7 19:43:17 10° NW 19:48:23 36° WSW 19:53:30 10° S
SJ 16-02 1.6 19:46:39 10° NNW 19:51:00 67° WSW 19:55:20 10° S
Cosmos 2322 Rocket 2.4 19:45:33 10° SSW 19:51:09 73° WNW 19:56:43 10° N
Cosmos 1726 4.2 19:48:33 10° NNW 19:51:44 28° W 19:54:55 10° SSW
Cosmos 2237 4.3 19:48:19 10° S 19:53:52 55° ESE 19:59:26 10° NNE
CZ-4 R/B 3.8 19:52:11 10° SSW 19:55:17 21° W 19:58:21 10° NW
VEP-3 3.9 19:49:03 10° WNW 19:55:23 37° N 20:00:53 10° ENE
SL-14 R/B 3.9 19:52:21 10° SSW 19:56:08 56° W 19:59:58 10° N
BREEZE-M DEB (TANK) 3.8 19:51:34 10° SSW 19:56:24 22° SE 19:56:24 22° SE
Cosmos 2228 3.0 19:52:21 10° N 19:56:41 66° E 19:59:59 17° SSE
SJ-6B 3.9 19:58:16 25° E 19:58:43 26° ENE 20:02:01 10° NNE
Cosmos 1606 Rocket 3.5 19:56:27 10° N 20:00:54 77° E 20:04:21 17° S
Cosmos 1300 4.1 19:58:26 10° NNE 20:01:00 22° ENE 20:01:00 22° ENE
OAO 3 Copernicus 4.2 19:57:33 10° SW 20:02:38 87° SE 20:07:41 10° NE
Meteor 2-21 Rocket 4.5 19:57:34 10° S 20:03:40 62° E 20:09:45 10° NNE
MOS 1 Rocket 4.5 20:06:41 10° N 20:11:29 48° WNW 20:16:32 10° SSW
SL-24 R/B - RUBIN 2 4.0 20:08:29 10° SSW 20:13:39 72° ESE 20:19:34 10° NNE
Cosmos 2315 Rocket 4.0 20:08:28 10° N 20:14:47 71° E 20:19:14 21° SSE
Cosmos 2322 4.2 20:13:37 33° SE 20:14:57 37° ESE 20:20:09 10° NE
Cosmos 1937 Rocket 3.5 20:10:24 10° NNW 20:15:42 87° WSW 20:18:47 26° S
CZ-3A R/B 3.6 19:53:46 10° SW 20:19:06 48° SSE 20:22:34 32° ESE
Cosmos 1602 Rocket 3.6 20:19:18 50° SE 20:19:55 56° E 20:24:13 10° NNE
Meteor 2-15 Rocket 4.4 20:16:53 10° N 20:22:56 82° W 20:27:35 18° S
USA 229 DEB 4.1 20:15:48 10° N 20:23:11 54° ENE 20:26:10 36° ESE
USA 229 4.2 20:15:53 10° N 20:23:16 53° ENE 20:26:14 36° ESE
NOSS 3-3 (A) 3.8 20:18:05 10° S 20:23:25 48° ESE 20:28:54 10° NE
NOSS 3-3 (C) 3.8 20:18:13 10° S 20:23:31 47° ESE 20:29:00 10° NE
Cosmos 2333 4.3 20:26:08 45° SE 20:26:46 47° ESE 20:32:08 10° NNE
Cosmos 2219 Rocket 4.0 20:30:39 16° NE 20:30:39 16° NE 20:31:55 10° NE
Cosmos 2360 Rocket 2.5 20:23:26 10° SSW 20:28:59 67° WNW 20:34:35 10° N
GPS 2-18 Rocket1 4.4 20:25:54 10° WNW 20:29:13 32° N 20:30:07 28° NNE
Cosmos 1726 Rocket 4.3 20:27:50 10° NNW 20:32:09 51° W 20:34:27 25° SSW
Meteor 2-16 Rocket 4.4 20:26:12 10° S 20:32:18 86° W 20:38:22 10° N
Cosmos 2285 Rocket 3.9 20:27:31 10° N 20:33:44 64° ENE 20:35:18 49° SE
Cosmos 1356 Rocket 3.5 20:30:03 10° N 20:33:47 64° NE 20:33:47 64° NE
Cosmos 2333 Rocket 3.4 20:39:22 27° NE 20:39:22 27° NE 20:42:12 10° NE
GPS 2-15 Rocket1 4.1 20:32:22 10° WNW 20:37:03 42° N 20:38:16 35° NE
Cosmos 372 Rocket 3.9 20:33:43 10° N 20:38:54 62° ENE 20:39:00 62° E
Cosmos 1386 Rocket 4.5 20:38:24 50° SE 20:39:45 61° E 20:46:00 10° NNE
Cosmos 2263 Rocket 2.5 20:35:11 10° N 20:40:18 46° ENE 20:40:18 46° ENE
Mugunghwa Rocket 4.5 20:36:12 10° SW 20:41:37 42° SSE 20:41:37 42° SSE
SL-08 RB Rocket 4.1 20:42:33 47° SW 20:43:27 57° WSW 20:47:50 10° NNW
Resurs 01 Rocket 3.5 20:45:41 19° NNE 20:45:41 19° NNE 20:47:16 10° NNE
Hubble Space Telescope 1.3 20:39:57 10° WSW 20:43:58 55° NNW 20:43:58 55° NNW
ARGOS 4.1 20:42:38 20° SSW 20:45:59 43° W 20:51:06 10° NNW
USA 186 4.0 20:48:12 23° WSW 20:48:20 23° W 20:51:02 10° NW
MetOp-A 4.0 20:50:15 78° SSE 20:50:39 90° ENE 20:56:01 10° NNW
Palapa B4 Rocket 3.8 20:44:28 10° WSW 20:53:08 88° N 20:54:04 66° ENE
Delta 142 4.3 20:51:43 10° WNW 20:55:09 48° WNW 20:55:09 48° WNW
Milstar 3 Cent rocket 2.3 20:54:23 10° WNW 20:59:14 72° SSW 20:59:23 72° SSW
Centaur Rocket 4.4 21:10:15 10° WNW 21:21:52 60° WSW 21:21:52 60° WSW
Cosmos 2219 Rocket 4.5 22:12:14 19° NW 22:12:14 19° NW 22:15:00 10° NNW
